Concordia, KS

3:22 PM CST on November 21, 2019 (GMT -0600)
Blosser Municipal

Weather History for KCNK - September, 2019

Change the Weather History Date:

Sunday, September 15, 2019

  Actual Average Record
Temperature  
Mean Temperature 85 °F 68 °F  
Max Temperature 98 °F 80 °F 100 °F (1895)
Min Temperature 71 °F 56 °F 34 °F (1993)
Degree Days  
Heating Degree Days 0 2  
Month to date heating degree days 0 16  
Since 1 July heating degree days 0 19  
Cooling Degree Days 20 5  
Month to date cooling degree days 195 109  
Year to date cooling degree days 1472 1275  
Growing Degree Days 35 (Base 50)    
Moisture  
Dew Point 64 °F    
Average Humidity 54    
Maximum Humidity 79    
Minimum Humidity 29    
Precipitation  
Precipitation 0.00 in 0.11 in 2.30 in (1996)
Month to date precipitation 0.02 1.46  
Year to date precipitation 28.86 22.56  
Snow  
Snow 0.00 in 0.00 in 0.00 in ()
Month to date snowfall 0.0 0.0  
Year to date snowfall 32.3 13.7  
Since 1 July snowfall 0.0 0.0  
Snow Depth 0.00 in    
Sea Level Pressure  
Sea Level Pressure 29.95 in    
Wind  
Wind Speed 10 mph (SSW)    
Max Wind Speed 18 mph    
Max Gust Speed 28 mph    
Visibility 10 miles    
Events      
T = Trace of Precipitation, MM = Missing Value Source: NWS Daily Summary

Daily Weather History Graph

Daily Weather History Graph

Search for Another Location

Airport or City:

Astronomy

Sep. 15, 2019 Rise Set
Actual Time 7:11 AM CDT 7:39 PM CDT
Civil Twilight 6:44 AM CDT 8:06 PM CDT
Nautical Twilight 6:12 AM CDT 8:38 PM CDT
Astronomical Twilight 5:40 AM CDT 9:10 PM CDT
Moon 8:48 PM CDT (9/15) 8:22 AM CDT (9/15)
Length of Visible Light 13h 21m
Length of Day
12h 27m
Full, 98% of the Moon is Illuminated
Sep 15
Full
Sep 21
Last Quarter
Sep 28
New
Oct 5
First Quarter
Oct 13
Full

Hourly Weather History & Observations

Time (CDT) Temp. Heat Index Dew Point Humidity Pressure Visibility Wind Dir Wind Speed Gust Speed Precip Events Conditions
12:55 AM 79.0 °F - 64.9 °F 62% 29.94 in 10.0 mi SSW 15.0 mph - N/A   Clear
1:55 AM 77.0 °F - 64.9 °F 66% 29.95 in 10.0 mi SSW 17.3 mph - N/A   Clear
2:55 AM 77.0 °F - 64.9 °F 66% 29.94 in 10.0 mi SSW 15.0 mph - N/A   Clear
3:55 AM 75.9 °F - 64.0 °F 67% 29.94 in 10.0 mi SSW 12.7 mph - N/A   Clear
4:55 AM 75.0 °F - 64.0 °F 69% 29.94 in 10.0 mi SSW 12.7 mph - N/A   Clear
5:55 AM 73.9 °F - 63.0 °F 68% 29.95 in 10.0 mi SW 8.1 mph - N/A   Clear
6:55 AM 72.0 °F - 63.0 °F 73% 29.97 in 10.0 mi SW 4.6 mph - N/A   Clear
7:55 AM 72.0 °F - 64.0 °F 76% 29.98 in 10.0 mi Calm Calm - N/A   Clear
8:55 AM 78.1 °F - 64.9 °F 64% 29.98 in 10.0 mi WSW 5.8 mph - N/A   Clear
9:55 AM 82.0 °F 83.1 °F 63.0 °F 52% 29.98 in 10.0 mi WSW 10.4 mph 19.6 mph N/A   Clear
10:55 AM 84.9 °F 85.9 °F 63.0 °F 48% 29.99 in 10.0 mi SW 11.5 mph 21.9 mph N/A   Clear
11:55 AM 89.1 °F 90.3 °F 64.0 °F 43% 29.98 in 10.0 mi West 11.5 mph - N/A   Clear
2:55 PM 93.9 °F 95.2 °F 63.0 °F 36% 29.94 in 10.0 mi South 5.8 mph - N/A   Clear
3:55 PM 96.1 °F 98.3 °F 64.0 °F 35% 29.92 in 10.0 mi SSW 6.9 mph - N/A   Clear
4:55 PM 98.1 °F 98.6 °F 61.0 °F 29% 29.91 in 10.0 mi SW 9.2 mph - N/A   Clear
5:55 PM 93.9 °F 95.2 °F 63.0 °F 36% 29.91 in 10.0 mi SSW 6.9 mph - N/A   Clear
6:55 PM 88.0 °F 89.6 °F 64.9 °F 46% 29.92 in 10.0 mi South 9.2 mph - N/A   Clear
7:55 PM 82.0 °F 83.4 °F 64.0 °F 54% 29.93 in 10.0 mi South 10.4 mph - N/A   Clear
8:55 PM 79.0 °F - 63.0 °F 58% 29.94 in 10.0 mi South 10.4 mph - N/A   Clear
9:55 PM 77.0 °F - 63.0 °F 62% 29.95 in 10.0 mi South 10.4 mph - N/A   Clear
10:55 PM 80.1 °F 81.5 °F 63.0 °F 56% 29.96 in 10.0 mi South 16.1 mph - N/A   Clear
11:55 PM 79.0 °F - 64.0 °F 60% 29.95 in 10.0 mi South 13.8 mph - N/A   Clear